Change the Weather History Date:

Friday, August 2, 2013

  Actual Average Record
Temperature  
Mean Temperature 72 °F -  
Max Temperature 79 °F 74 °F 98 °F (2006)
Min Temperature 64 °F 62 °F 54 °F (1985)
Cooling Degree Days 6    
Growing Degree Days 22 (Base 50)    
Moisture  
Dew Point 66 °F    
Average Humidity 87    
Maximum Humidity 100    
Minimum Humidity 69    
Precipitation  
Precipitation 0.35 in - - ()
Sea Level Pressure  
Sea Level Pressure 29.85 in    
Wind  
Wind Speed 4 mph (SSW)    
Max Wind Speed 14 mph    
Max Gust Speed 23 mph    
Visibility 7 miles    
Events Rain    
Averages and records for this station are not official NWS values.
T = Trace of Precipitation, MM = Missing Value Source: NWS Daily Summary

Daily Weather History Graph

Daily Weather History Graph

Search for Another Location

Airport or City:

Trip Planner

Search our weather history database for the weather conditions in past years. The results will help you decide how hot, cold, wet, or windy it might be!

Date:

Astronomy

Aug. 02, 2013 Rise Set
Actual Time 5:35 AM EDT 7:56 PM EDT
Civil Twilight 5:04 AM EDT 8:27 PM EDT
Nautical Twilight 4:25 AM EDT 9:05 PM EDT
Astronomical Twilight 3:42 AM EDT 9:48 PM EDT
Moon 1:53 AM EDT (8/2) 4:52 PM EDT (8/2)
Length of Visible Light 15h 23m
Length of Day
14h 20m
Waning Crescent, 16% of the Moon is Illuminated
Aug 2
Waning Crescent
Aug 6
New
Aug 14
First Quarter
Aug 20
Full
Aug 28
Last Quarter

Hourly Weather History & Observations

Time (EDT) Temp. Dew Point Humidity Pressure Visibility Wind Dir Wind Speed Gust Speed Precip Events Conditions
12:03 AM 66.2 °F 64.4 °F 94% 29.92 in 4.0 mi Calm Calm - 0.01 in Rain Rain
12:11 AM 66.2 °F 64.4 °F 94% 29.92 in 5.0 mi Calm Calm - 0.02 in Rain Light Rain
12:18 AM 66.2 °F 64.4 °F 94% 29.91 in 7.0 mi Calm Calm - 0.02 in Rain Light Rain
12:46 AM 66.2 °F 64.4 °F 94% 29.91 in 6.0 mi Calm Calm - 0.02 in Rain Light Rain
12:52 AM 66.9 °F 64.9 °F 93% 29.91 in 6.0 mi Calm Calm - 0.02 in Rain Light Rain
1:52 AM 66.9 °F 64.0 °F 90% 29.88 in 10.0 mi Calm Calm - 0.01 in   Overcast
2:52 AM 66.9 °F 64.9 °F 93% 29.85 in 10.0 mi Calm Calm - N/A   Overcast
3:52 AM 66.0 °F 64.0 °F 93% 29.84 in 8.0 mi SE 5.8 mph - N/A   Overcast
4:08 AM 66.2 °F 64.4 °F 94% 29.83 in 5.0 mi SE 5.8 mph - N/A   Mostly Cloudy
4:20 AM 64.4 °F 64.4 °F 100% 29.83 in 7.0 mi Variable 4.6 mph - N/A   Scattered Clouds
4:52 AM 64.0 °F 62.1 °F 93% 29.84 in 10.0 mi SSE 6.9 mph - N/A   Mostly Cloudy
5:52 AM 64.9 °F 63.0 °F 93% 29.84 in 7.0 mi SSE 3.5 mph - N/A   Overcast
6:29 AM 66.2 °F 64.4 °F 94% 29.84 in 7.0 mi SSE 4.6 mph - N/A   Overcast
6:52 AM 66.0 °F 64.0 °F 93% 29.84 in 8.0 mi SE 4.6 mph - N/A   Overcast
7:52 AM 66.0 °F 63.0 °F 90% 29.85 in 7.0 mi Calm Calm - 0.00 in Rain Light Rain
8:52 AM 68.0 °F 64.9 °F 90% 29.85 in 10.0 mi Calm Calm - 0.00 in   Mostly Cloudy
9:52 AM 69.1 °F 64.0 °F 84% 29.84 in 10.0 mi South 3.5 mph - N/A   Overcast
10:12 AM 68.0 °F 64.4 °F 88% 29.85 in 2.0 mi SW 4.6 mph - 0.02 in Rain Light Rain
10:19 AM 66.2 °F 64.4 °F 94% 29.85 in 1.0 mi SSW 5.8 mph - 0.05 in Rain Heavy Rain
10:28 AM 66.2 °F 66.2 °F 100% 29.85 in 0.8 mi SSW 8.1 mph - 0.15 in Rain Rain
10:40 AM 68.0 °F 66.2 °F 94% 29.84 in 1.0 mi Variable 4.6 mph - 0.24 in Rain Heavy Rain
10:48 AM 69.8 °F 66.2 °F 88% 29.84 in 1.8 mi SSW 6.9 mph - 0.25 in Rain Rain
10:52 AM 69.1 °F 66.9 °F 93% 29.84 in 2.0 mi SSW 5.8 mph - 0.25 in Rain Rain
10:59 AM 69.8 °F 66.2 °F 88% 29.83 in 0.8 mi Variable 5.8 mph - 0.06 in Rain Heavy Rain
11:05 AM 69.8 °F 66.2 °F 88% 29.83 in 1.0 mi SSW 5.8 mph - 0.07 in Rain Rain
11:12 AM 69.8 °F 68.0 °F 94% 29.84 in 3.0 mi Variable 5.8 mph - 0.07 in Rain Light Rain
11:34 AM 69.8 °F 68.0 °F 94% 29.84 in 6.0 mi Variable 3.5 mph - 0.07 in   Overcast
11:52 AM 70.0 °F 68.0 °F 93% 29.84 in 5.0 mi Variable 4.6 mph - 0.07 in   Overcast
12:03 PM 69.8 °F 68.0 °F 94% 29.84 in 5.0 mi Variable 4.6 mph - N/A   Overcast
12:13 PM 71.6 °F 69.8 °F 94% 29.84 in 5.0 mi SW 5.8 mph - N/A   Overcast
12:34 PM 73.4 °F 69.8 °F 88% 29.83 in 10.0 mi SW 9.2 mph - N/A   Overcast
12:52 PM 75.0 °F 71.1 °F 87% 29.83 in 10.0 mi SSW 6.9 mph - N/A   Overcast
1:10 PM 75.2 °F 69.8 °F 83% 29.83 in 10.0 mi SW 6.9 mph - N/A   Overcast
1:36 PM 77.0 °F 71.6 °F 83% 29.83 in 10.0 mi SW 8.1 mph - N/A   Mostly Cloudy
1:52 PM 77.0 °F 70.0 °F 79% 29.83 in 10.0 mi SW 5.8 mph - N/A   Mostly Cloudy
2:26 PM 78.8 °F 69.8 °F 74% 29.83 in 10.0 mi SW 9.2 mph 16.1 mph N/A   Mostly Cloudy
2:52 PM 79.0 °F 71.1 °F 77% 29.84 in 10.0 mi SSW 9.2 mph - N/A   Scattered Clouds
3:52 PM 78.1 °F 70.0 °F 76% 29.83 in 10.0 mi Variable 4.6 mph - N/A   Scattered Clouds
4:52 PM 77.0 °F 66.9 °F 71% 29.84 in 10.0 mi WSW 12.7 mph 19.6 mph N/A   Overcast
5:52 PM 77.0 °F 66.0 °F 69% 29.83 in 10.0 mi WSW 9.2 mph 20.7 mph N/A   Clear
6:52 PM 75.0 °F 64.9 °F 71% 29.86 in 10.0 mi WSW 13.8 mph 23.0 mph N/A   Clear
7:52 PM 73.9 °F 64.0 °F 71% 29.87 in 10.0 mi WSW 9.2 mph 18.4 mph N/A   Clear
8:52 PM 73.0 °F 64.9 °F 76% 29.88 in 10.0 mi WSW 5.8 mph - N/A   Clear
9:52 PM 73.0 °F 64.9 °F 76% 29.91 in 10.0 mi Variable 6.9 mph - N/A   Clear
10:52 PM 72.0 °F 64.9 °F 78% 29.91 in 10.0 mi WSW 5.8 mph - N/A   Clear
11:52 PM 73.0 °F 64.9 °F 76% 29.91 in 10.0 mi Variable 6.9 mph - N/A   Clear